DMSP 5D-2 F13 DEB, 40407

Orbit data source: Space-Track

DMSP 5D-2 F13 DEB, 40407 is space debris in SSO originally from a launch on Fri, 24 Mar 1995 UTC launched from the Air Force Western Test Range (AFWTR). Debris objects in space refer to the collection of defunct objects orbiting the Earth. Examples of debris include non-operational satellites, rocket bodies, and fragments generated from explosions, collisions, or faulty payload assembly.

Loading next visibility...
Identifier
40407, 1995-015U
Orbit
SSO
Country
Flag of USUS
Related business
Manufacturer
Unknown
Mission
Spacecraft
Bus & Motor
Unknown
Mass
Unknown
Launch date (UTC)
1995-03-24 (31 years ago)
Launch vehicle
Unknown
Launch site
Air Force Western Test Range (AFWTR)
Object type
Payload
Rocket body
Debris
Shape & HBR
Unknown shape, 0.1 m
Radar Cross Section
Small (<0.1 m²)

Expand to show TLE details & history
Last TLE update: 21 hours ago

TLE from 21 hours ago
0 DMSP 5D-2 F13 DEB
1 40407U 95015U   25338.49204125  .00000574  00000-0  30463-3 0  9998
2 40407  98.8081 349.9502 0006146   0.2546 359.8631 14.17528969556932
Epoch: 2025-12-04T11:48Z
TLE epoch observation values (Epoch: 2025-12-04T11:48:32.363Z)
Latitude
0.00001°
Longitude
99.26764°
Altitude
832.196 km
Speed
7.439 km/s
True Right ascension
23h 19m 48s
True Declination
0° 00' 00"
Sunlit
Object was in daylight at epoch
Visualization orbit readout
Latitude
Unknown
Longitude
Unknown
Altitude
Unknown
Speed
Unknown
Apparent Right ascension
Unknown
Apparent Declination
Unknown
Sunlit
N/A
Visualization observer readout
Local Sidereal Time
07:06:42
Azimuth
Unknown
Elevation
Unknown
Doppler factor
Unknown
Orbital elements
Apogee altitude
835.319 km
Perigee altitude
826.458 km
Semi-major axis
7,209.025 km
Eccentricity
0.00061
Inclination
98.8081°
RAAN
349.9502°
Arg. of periapsis
0.2546°
True anomaly
359.86293°
Mean anomaly
359.8631°
Eccentric anomaly
359.86302°
Mean motion
3.54592 °/min
Orbital period
101.53 mins
BSTAR
0.00030463

Documentation

Showing up to 5 results
|